Regional Weather Roundup
Issued by NWS San Diego, CA

Home | Current Version | Previous Version | Text Only | Print | Product List | Glossary On
Versions: 1 2 3 4 5 6 7 8 9 10 11 12 13 14 15 16 17 18 19 20 21 22 23 24 25 26 27 28 29 30 31 32 33 34 35 36 37 38 39 40 41 42 43 44 45 46 47 48 49 50
000
ASUS46 KSGX 301810
RWRSGX

SAN DIEGO HOURLY WEATHER ROUNDUP
NATIONAL WEATHER SERVICE SAN DIEGO CA
1000 AM PST FRI JAN 30 2015

NOTE: "FAIR" INDICATES FEW OR NO CLOUDS BELOW 12,000 FEET WITH NO
SIGNIFICANT WEATHER AND/OR OBSTRUCTIONS TO VISIBILITY.

CAZ042-043-060-061-PZZ750-775-301900-

GREATER SAN DIEGO AREA

CITY           SKY/WX    TMP DP  RH WIND       PRES   REMARKS
LINDBERGH FLD  LGT RAIN  62  55  77 CALM      29.96R
NATIONAL CITY    N/A     62  59  88 CALM      29.95R
CHULA VISTA      N/A     63  58  85 CALM      29.88R
IMPERIAL BEACH CLOUDY    64  58  80 SW6       29.95R
BROWN FIELD    CLOUDY    62  54  74 CALM      29.94S
MIRAMAR MCAS   CLOUDY    63  52  67 CALM      29.94R
MONTGOMERY FLD CLOUDY    62  55  77 S5        29.95R

$$

NORTH SAN DIEGO COUNTY

CITY           SKY/WX    TMP DP  RH WIND       PRES   REMARKS
CAMP PENDLETON CLOUDY    63  50  62 CALM      29.93S
OCEANSIDE AP   CLOUDY    62  51  67 CALM      29.93R
OCEANSIDE HBR    N/A     62  56  81 E3        29.96R
VISTA            N/A     60  51  71 CALM      29.92R
CARLSBAD       CLOUDY    61  50  67 S3        29.93R
DEL MAR          N/A     61  56  84 CALM      29.96R
LA JOLLA SCRIP   N/A     61  56  84 CALM      29.92R
FALLBROOK        N/A     61  55  80 NE2       29.95S
ESCONDIDO        N/A     59  52  76 SE3       29.95S
SAN MARCOS       N/A     61  52  72 CALM      29.92S
POWAY            N/A    N/A N/A N/A CALM      29.96R

$$

EAST SAN DIEGO COUNTY

CITY           SKY/WX    TMP DP  RH WIND       PRES   REMARKS
RAMONA         CLOUDY    56  49  77 SE3       29.95R
SANTEE LAKES     N/A     60  55  83 CALM      29.96R
LA MESA          N/A     61  54  78 CALM      29.89R
JAMUL            N/A     58  53  82 CALM      29.95R
DESCANSO N       N/A     50  45  81 E3        29.84R
MT. LAGUNA OBS   N/A     39  39 100 CALM      29.57S
CAMPO            N/A     55  45  68 NE5       29.92R

$$

ORANGE COUNTY AND THE LOS ANGELES BASIN

CITY           SKY/WX    TMP DP  RH WIND       PRES   REMARKS
JOHN WAYNE AP  CLOUDY    66  51  58 CALM      29.92S
LAGUNA BEACH     N/A     63  54  73 CALM      29.89S
LAKE FOREST FR   N/A     63  45  51 CALM      29.82S
SANTA ANA        N/A     66  56  70 SW1       29.88S
HUNTINGTON BCH   N/A     63  57  80 NW2       29.94S
LOS ALAMITOS   CLOUDY    64  56  74 W5        29.92S
FULLERTON      CLOUDY    65  54  67 NW3       29.92S
LONG BEACH     CLOUDY    65  55  70 CALM      29.93R
L.A. AP        CLOUDY    63  54  72 E6        29.93R
L.A. DOWNTOWN  CLOUDY    64  51  62 CALM      29.92S

$$

THE INLAND EMPIRE

CITY           SKY/WX    TMP DP  RH WIND       PRES   REMARKS
CORONA         CLOUDY    66  47  50 CALM      29.93S
CHINO          PTSUNNY   63  50  62 CALM      29.94S
ONTARIO        CLOUDY    63  48  58 SW3       29.93S
SAN BERNARDINO CLOUDY    59  46  63 E3        29.94S
RIVERSIDE AP   CLOUDY    63  47  55 CALM      29.94R
RIV CYN CREST    N/A     63  54  72 E2          N/A
MORENO VALLEY    N/A     60  52  76 SE1       29.14S
MARCH ARB      PTSUNNY   59  47  65 CALM      29.94S
HORSETHIEF CYN   N/A     59  43  54 CALM      29.88R
PERRIS           N/A     58  50  72 NE1         N/A
MENIFEE          N/A     63  52  67 NE1       30.03R
HEMET EAST       N/A     54  47  77 CALM      29.95R
FRENCH VALLEY  CLOUDY    59  46  63 CALM      29.94S
TEMECULA         N/A     59  52  79 W1        29.90S

$$

SAN BERNARDINO AND RIVERSIDE COUNTY MOUNTAINS

CITY           SKY/WX    TMP DP  RH WIND       PRES   REMARKS
BIG BEAR AP    DRIZZLE   34  32  93 CALM      30.00S
PINE COVE        N/A     40  38  94 S2        29.93R

$$

SOUTHERN DESERT INCLUDING THE COACHELLA VALLEY

CITY           SKY/WX    TMP DP  RH WIND       PRES   REMARKS
PALM SPRINGS   LGT RAIN  62  55  77 CALM      29.96S
THOUSAND PALMS   N/A     61  54  77 CALM      29.93
PALM DESERT      N/A     62  57  83 CALM      29.06S
THERMAL        CLOUDY    63  55  75 N6        29.92S
BLYTHE         CLOUDY    61  54  77 N3        29.93R
IMPERIAL AP    CLOUDY    61  54  77 SW5       29.93S
EL CENTRO NAS  PTSUNNY   63  53  70 W6        29.93S
YUMA AZ        PTSUNNY   64  53  67 N5        29.93S
MEXICALI       CLOUDY    61  57  88 W6        29.94

$$

UPPER DESERT

CITY           SKY/WX    TMP DP  RH WIND       PRES   REMARKS
VICTORVILLE AP CLOUDY    52  46  82 CALM      29.98S
HESPERIA         N/A     50  47  91 CALM      30.09F
APPLE VALLEY     N/A     52  46  82 CALM      30.04S
PALMDALE       PTSUNNY   53  48  83 CALM      29.99S
LANCASTER      PTSUNNY   54  46  74 CALM      29.98F
EDWARDS AFB    PTSUNNY   54  50  86 SW6       29.96S
DAGGETT        CLOUDY    55  48  77 NW7       29.97S
29 PALMS N     LGT RAIN  52  49  89 NW9       30.04R
NEEDLES        CLOUDY    60  52  74 NE5       29.92R

$$

REGIONAL REPORTS

CITY           SKY/WX    TMP DP  RH WIND       PRES   REMARKS
SANTA BARBARA  MOSUNNY   60  51  72 SE5       29.94F
SANDBERG       CLOUDY    51  40  65 NE3       30.00F
MT. WILSON       N/A    N/A N/A N/A MISG        N/A
LAS VEGAS NV   LGT RAIN  53  45  74 NW13      29.92S
PHOENIX AZ     LGT RAIN  57  55  93 E10       29.90R FOG
TIJUANA        CLOUDY    63  52  67 W5        29.97R

$$

OFFSHORE ISLANDS

CITY           SKY/WX    TMP DP  RH WIND       PRES   REMARKS
CATALINA ARPT  LGT RAIN  59  50  72 SW5       29.96S
SAN CLEMENTE I PTSUNNY   64  59  85 S8        29.96S
SAN NICOLAS IS MOSUNNY  N/A N/A N/A NW5       29.94F

$$

MARINE AND OFFSHORE BUOY REPORTS

STATION/POSITION SKY/WX   TEMP    WIND        PRES    SWELL
                          AIR SEA DIR/SP/G            HT/PER/DIR
                          (F)     (DEG/KT/KT) (MB)    (FT/S/D)
TANNER BANKS               60 62  320/ 12/ 16 1014.4R
S CLEMENTE BASIN           62 62  270/ 10/ 12 1013.7S   3/290/17
SAN NICOLAS IS.               62                N/A     3/300/17
SO. S. ROSA ISLA           59 60  330/ 17/ 21 1013.7S   5/16
W. S. BARBARA CH           58 60  330/ 17/ 19 1013.8S   3/300/17
S. MONICA BASIN            61 62  320/ 12/ 14 1013.9F   2/270/12
S PEDRO CHANNEL               62                N/A     2/270/18
DANA POINT                    61                N/A     2/280/18
CMP PENDLETON NS              62                N/A     2/230/13
OCEANSIDE OFFSHR              62                N/A     2/250/11
TORREY PINES OTR              62                N/A     2/270/18
LA JOLLA 1                 62 62  190/  2/  3 1014.1R
MISSION BAY BUOY              62                N/A     2/270/18
SAN DIEGO BAY                 62              1014.6R
POINT LOMA SOUTH              62                N/A     3/270/18

$$



USA.gov is the U.S. government's official web portal to all federal, state and local government web resources and services.